Find Starlink 31683

NORAD ID: 59573 Int'l Des: 2024-076 Owner: SPXS Country: US Constellation: starlink operational
LEOCIRCULAR

現在のビュー

3D地球を読み込み中...

About Starlink 31683

Starlink 31683 (NORAD 59573) is a starlink constellation satellite (v2 mini) launched Apr 23, 2024 by SPXS of US. It operates in LEO, CIRCULAR orbit with a mass of 730.00 kg.

次回通過

Passes for default location (London). Set your location on the main map for personalized predictions.

高度履歴

Loading altitude history...

軌道要素

1 59573U 24076K 26237.71063668 -.00000632 00000-0 -13448-4 0 9992
2 59573 43.0021 134.3362 0001017 259.5514 100.5223 15.27575131132357
Epoch: Aug 25, 2026 • Age: 9 hours

現在のステータス

高度 483.0 km
遠地点 / 近地点 N/A
速度 7.63 km/s
衛星直下点 -1.81°S, 45.56°W
打ち上げ日 Apr 23, 2024
運用期間 2.3 years
タイプ internet

技術仕様

分類 Payload
質量 730.00 kg
乾燥質量 700.00 kg
総質量 730.00 kg
長さ 0.30 m
直径 4.10 m
スパン 29.00 m
形状 Box + pan
製造者 SPXS
バスタイプ Starlink V2M
フェーズステータス In Orbit
所有者/国 SPXS/US

Most Searched